OPS 4682 DEB, 38417

Orbit data source: Space-Track

OPS 4682 DEB, 38417 is space debris in LEO originally from a launch on Sat, 03 Apr 1965 UTC launched from the Air Force Western Test Range (AFWTR). Debris objects in space refer to the collection of defunct objects orbiting the Earth. Examples of debris include non-operational satellites, rocket bodies, and fragments generated from explosions, collisions, or faulty payload assembly.

Loading next visibility...
Identifier
38417, 1965-027DW
Orbit
LEO
Country
Flag of USUS
Related business
Manufacturer
Unknown
Mission
Spacecraft
Bus & Motor
Unknown
Mass
Unknown
Launch date (UTC)
1965-04-03 (61 years ago)
Launch vehicle
Unknown
Launch site
Air Force Western Test Range (AFWTR)
Object type
Payload
Rocket body
Debris
Shape & HBR
Unknown shape, 0.1 m
Radar Cross Section
Medium (>0.1 m² and <1 m²)

Expand to show TLE details & history
Last TLE update: 1 day ago

TLE from 1 day ago
0 OPS 4682 DEB
1 38417U 65027DW  26174.52706775  .00000379  00000-0  12905-2 0  9990
2 38417  90.2483  12.4296 0033989 124.4119 236.0223 12.96679656607502
Epoch: 2026-06-23T12:38Z
TLE epoch observation values (Epoch: 2026-06-23T12:38:58.653Z)
Latitude
0.00004°
Longitude
-89.01214°
Altitude
1,292.604 km
Speed
7.203 km/s
True Right ascension
00h 49m 43s
True Declination
0° 00' 00"
Sunlit
Object was in daylight at epoch
Visualization orbit readout
Latitude
Unknown
Longitude
Unknown
Altitude
Unknown
Speed
Unknown
Apparent Right ascension
Unknown
Apparent Declination
Unknown
Sunlit
N/A
Visualization observer readout
Local Sidereal Time
01:48:40
Azimuth
Unknown
Elevation
Unknown
Doppler factor
Unknown
Orbital elements
Apogee altitude
1,298.259 km
Perigee altitude
1,246.253 km
Semi-major axis
7,650.393 km
Eccentricity
0.0034
Inclination
90.2483°
RAAN
12.4296°
Arg. of periapsis
124.4119°
True anomaly
235.70008°
Mean anomaly
236.0223°
Eccentric anomaly
235.86112°
Mean motion
3.24353 °/min
Orbital period
110.99 mins
BSTAR
0.0012905
Loading maneuver chart data...
Computing Atmospheric mass density...
Loading historical data...
Loading historical data...
Loading historical data...
Loading historical data...
Loading historical data...
Loading historical data...
Loading historical data...

Documentation

Showing up to 5 results
|